Home > Time Zones > World Clock > Weather > India > Theni > Past weeks

Flag for India Weather past 2 weeks in Theni, Tamil Nadu, India

Now
72 °F

Fog.


Feels Like: 72 °F
Forecast: 66 / 88 °F
Wind: No wind

Location: Coimbatore / Peelamedu

Current Time: Dec 21, 2014 at 12:09:06 AM

Latest Report: Dec 20, 2014 at 11:30 PM


Visibility: 2 mi

Pressure: 30.01 "Hg

Humidity: 78%

Dew point: 64 °F

Location of TheniLocation

Historic Weather in Theni — Graph

°F

Theni temperature yesterday

Maximum temperature yesterday: 79 °F (at 11:30 AM)
Minimum temperature yesterday: 72 °F (at 12:30 AM)
Average temperature yesterday: 75 °F

Past Weeks' High & Low Weather Summary

 TemperatureHumidityPressure
High88 °F (Dec 7, 3:00 PM)100% (Dec 7, 6:30 AM)30.09 "Hg (Dec 7, 6:30 AM)
Low66 °F (Dec 6, 5:30 AM)35% (Dec 6, 4:00 PM)29.86 "Hg (Dec 6, 4:30 PM)
Average77 °F75%29.97 "Hg
* Reported Dec 5 10:30 PM — Dec 20 10:30 PM, Theni, Weather by CustomWeather, © 2014

Note: Actual official high and low records may vary slightly from our data, if they occured in-between our weather recording intervals... More about our weather records

Advertising

Theni weather history for previous 24 hours

 ConditionsComfort  
Time TempWeatherWind HumidityBarometerVisibility
10:30 PM
Dec 20
72 °FFog.3 mph83%30.01 "Hg2 mi
10:00 PM72 °FFog.5 mph94%30.01 "Hg2 mi
9:30 PM73 °FFog.5 mph83%30.01 "Hg2 mi
9:00 PM75 °FPartly cloudy.6 mph74%30.01 "Hg2 mi
8:30 PM75 °FPartly cloudy.6 mph74%30.01 "Hg2 mi
8:00 PM77 °FPartly cloudy.7 mph69%29.98 "Hg2 mi
7:30 PM77 °FPartly cloudy.12 mph69%29.98 "Hg2 mi
6:00 PM77 °FBroken clouds.5 mph69%29.92 "Hg2 mi
5:30 PM79 °FBroken clouds.3 mph61%29.92 "Hg2 mi
5:00 PM79 °FBroken clouds.6 mph65%29.92 "Hg2 mi
4:30 PM79 °FBroken clouds.7 mph65%29.92 "Hg2 mi
4:00 PM79 °FBroken clouds.8 mph65%29.92 "Hg2 mi
3:30 PM79 °FBroken clouds.5 mph65%29.92 "Hg2 mi
3:00 PM79 °FBroken clouds.6 mph65%29.92 "Hg2 mi
2:30 PM79 °FBroken clouds.7 mph65%29.92 "Hg2 mi
2:00 PM79 °FBroken clouds.9 mph65%29.95 "Hg2 mi
1:30 PM79 °FBroken clouds.6 mph65%29.95 "Hg2 mi
1:00 PM79 °FBroken clouds.12 mph65%29.98 "Hg2 mi
12:30 PM79 °FBroken clouds.7 mph61%29.98 "Hg2 mi
12:00 PM79 °FBroken clouds.8 mph61%30.01 "Hg2 mi
11:30 AM79 °FBroken clouds.9 mph58%30.01 "Hg2 mi
10:30 AM77 °FScattered clouds.9 mph69%30.04 "Hg2 mi
10:00 AM77 °FScattered clouds.10 mph69%30.04 "Hg2 mi
9:00 AM75 °FFog.8 mph74%30.07 "Hg1 mi
8:30 AM73 °FFog.9 mph83%30.07 "Hg1 mi
7:30 AM72 °FFog.No wind94%30.04 "Hg1 mi
7:00 AM72 °FFog.No wind94%30.01 "Hg1 mi
6:30 AM72 °FFog.No wind94%30.01 "Hg1 mi
6:00 AM72 °FFog.No wind94%30.01 "Hg1 mi
5:30 AM72 °FFog.No wind94%29.98 "Hg1 mi
4:30 AM72 °FFog.No wind94%29.98 "Hg2 mi
4:00 AM72 °FFog.No wind94%29.98 "Hg2 mi
3:30 AM72 °FFog.No wind94%29.98 "Hg2 mi
3:00 AM72 °FFog.No wind94%30.01 "Hg2 mi
2:30 AM72 °FFog.No wind94%30.01 "Hg2 mi
1:30 AM72 °FFog.No wind94%30.04 "Hg2 mi
12:30 AM72 °FFog.No wind94%30.04 "Hg2 mi
Weather by CustomWeather, © 2014

See weather overviewHow to use our weather pages